Tracking 31013 objects as of 10-Jul-2025
HD Live streaming from Space Station
objects crossing your sky now

COSMOS 839 DEB

Track COSMOS 839 DEB now!
10-day predictions


NORAD ID: 10447
Int'l Code: 1976-067Y
Perigee: 966.4 km
Apogee: 2,086.5 km
Inclination: 65.9 °
Period: 116.4 minutes
Semi major axis: 7897 km
RCS: 0.0759 m2 (small)
Launch date: July 8, 1976
Source: Commonwealth of Independent States (former USSR) (CIS)
Launch site: PLESETSK MISSILE AND SPACE COMPLEX (PKMTR)

Note: This is SATELLITE DEBRIS
Your satellite tracking list
Your tracking list is empty




NASA's NSSDC Master Catalog

Two Line Element Set (TLE):
1 10447U 76067Y   25191.57119583 -.00000099  00000-0 -14194-3 0  9991
2 10447  65.8647 339.1984 0709130 357.1487  68.3855 12.37003611211986
Source of the keplerian elements: AFSPC